This is the latest recevied weather packets stored in our database for station/object SP1BMW-13. If no packets are shown the sender has not sent any weather packets the latest 10 day(s).
| Time | Temp. | Humidity | Pressure | Rain* | Wind** | Luminosity | Snow |
|---|---|---|---|---|---|---|---|
| 1787994081 | 21.67° C | 61% | 1009.7 hPa | 0 mm | 0.89 m/s, 292° | 262 W/m² | - |
| 1787994021 | 21.67° C | 60% | 1009.9 hPa | 0 mm | 1.79 m/s, 355° | 632 W/m² | - |
| 1787993961 | 21.67° C | 61% | 1009.7 hPa | 0 mm | 0.45 m/s, 204° | 601 W/m² | - |
| 1787993901 | 21.67° C | 60% | 1009.8 hPa | 0 mm | 0.89 m/s, 273° | 589 W/m² | - |
| 1787993841 | 21.67° C | 61% | 1009.7 hPa | 0 mm | 0.89 m/s, 299° | 563 W/m² | - |
| 1787993781 | 21.67° C | 61% | 1009.9 hPa | 0 mm | 0.45 m/s, 67° | 153 W/m² | - |
| 1787993721 | 21.67° C | 60% | 1010 hPa | 0 mm | 1.34 m/s, 314° | 151 W/m² | - |
| 1787993661 | 21.67° C | 60% | 1009.7 hPa | 0 mm | 0.89 m/s, 269° | 397 W/m² | - |
| 1787993601 | 21.67° C | 60% | 1009.7 hPa | 0 mm | 0.89 m/s, 281° | 175 W/m² | - |
| 1787993541 | 21.67° C | 60% | 1010 hPa | 0 mm | 1.79 m/s, 175° | 172 W/m² | - |
| 1787993481 | 21.67° C | 61% | 1009.7 hPa | 0 mm | 0.45 m/s, 297° | 153 W/m² | - |
| 1787993421 | 21.67° C | 60% | 1009.8 hPa | 0 mm | 0.89 m/s, 318° | 167 W/m² | - |
| 1787993361 | 21.67° C | 60% | 1009.7 hPa | 0 mm | 1.79 m/s, 233° | 184 W/m² | - |
| 1787993301 | 21.67° C | 63% | 1009.9 hPa | 0 mm | 0.89 m/s, 249° | 234 W/m² | - |
| 1787993241 | 21.67° C | 63% | 1009.7 hPa | 0 mm | 1.79 m/s, 273° | 539 W/m² | - |
| 1787993181 | 21.67° C | 62% | 1009.7 hPa | 0 mm | 0.89 m/s, 247° | 388 W/m² | - |
| 1787993121 | 21.67° C | 62% | 1009.9 hPa | 0 mm | 1.34 m/s, 300° | 655 W/m² | - |
| 1787993061 | 21.67° C | 62% | 1009.9 hPa | 0 mm | 0.89 m/s, 245° | 454 W/m² | - |
| 1787993001 | 21.67° C | 62% | 1009.8 hPa | 0 mm | 1.79 m/s, 313° | 267 W/m² | - |
| 1787992941 | 21.67° C | 62% | 1009.8 hPa | 0 mm | 1.34 m/s, 263° | 578 W/m² | - |
| 1787992880 | 21.67° C | 61% | 1009.8 hPa | 0 mm | 0.89 m/s, 228° | 308 W/m² | - |
| 1787992821 | 21.67° C | 61% | 1009.9 hPa | 0 mm | 1.34 m/s, 248° | 175 W/m² | - |
| 1787992761 | 21.67° C | 62% | 1009.6 hPa | 0 mm | 0.89 m/s, 137° | 174 W/m² | - |
| 1787992701 | 21.67° C | 62% | 1009.6 hPa | 0 mm | 0.89 m/s, 199° | 164 W/m² | - |
| 1787992641 | 21.67° C | 62% | 1009.6 hPa | 0 mm | 2.68 m/s, 236° | 181 W/m² | - |
* Rain latest hour (hover to see other rain measurements)
** Current wind speed in m/s (hover to see current wind gust speed)